{"data":{"norad_id":66662,"intl_designator":"2025-274N","name":"E3T-1 (E3TESTER-1)","alt_names":[],"object_type":"PAYLOAD","status":"ACTIVE","operator":null,"country":"SKOR","launch_date":"2025-11-26","launch_site_code":"NSC","launch_vehicle":null,"mission":null,"orbit_class":"UNKNOWN","rcs_meters":null,"size_class":null,"mass_kg":null,"dimensions":null,"purposes":[],"wikipedia_slug":null,"has_3d_model":false,"image_url":null,"decayed_at":null,"tle_current":{"epoch":"2026-05-25T01:26:26.962656Z","epoch_age_seconds":70700,"freshness":"FRESH","line1":"1 66662U 25274N   26145.06003429  .00001424  00000+0  13831-3 0  9997","line2":"2 66662  97.7487  74.8812 0016538  95.2583 265.0525 14.94077998 26781","mean_motion":14.94077998,"eccentricity":0.0016538,"inclination_deg":97.7487,"raan_deg":74.8812,"arg_perigee_deg":95.2583,"mean_anomaly_deg":265.0525,"bstar":0.00013831,"rev_number":2678,"period_min":96.380510383501,"perigee_km":573.72000411842,"apogee_km":596.75205675389,"semimajor_km":6963.3730304362,"source":"CELESTRAK","updated_at":"2026-05-25T13:38:06.383011Z"}}}